www.pogodaiklimat.ru

Погода и климат >> Архив погоды >> Украина >> Семеновка


ПОГОДА в Семеновке

  • Прогноз погоды в Семеновке
  • Монитор погоды в Семеновке

АРХИВ ПОГОДЫ в Семеновке

Время (UTC), дата Ветер
(напр.,м/с)
 
Видим.   Явления Облачность Т
(С)
Тd
(С)
f
(%)
Тe
(С)
Тes
(С)
Комфортность P
(гПа)
Po
(гПа)
Тmin
(С)
Tmax
(С)
R
(мм)
R24
(мм)
S
(см)
00 14.06 штиль 0 16 км ясно +17.9 +14.8 82 +18 +18 1021.0 1002.0
03 14.06 В 2 20 км ясно +16.9 +13.0 78 +17 +18 1022.0 1002.9
06 14.06 Ю 1 20 км ясно +22.3 +12.8 55 +25 +35 комфорт 1021.0 1002.2 +15.9
09 14.06 Ю 2 20 км 1/0
[Ci fib]
+28.2 +16.1 48 +31 +48 душно 1019.0 1000.7
12 14.06 СЗ 2 20 км 5/4 1000 м
[Sc Ci fib]
+30.2 +16.2 43 +33 +39 душно 1018.0 999.8
15 14.06 З 2 18 км 6/1 1000 м
[Sc Ac As Ci fib]
+30.3 +16.3 43 +34 +35 очень
душно
1017.0 998.8
18 14.06 ЮЗ 1 17 км 9/0
[Ac trans Ci fib]
+26.7 +17.2 56 +31 +31 душно 1016.0 997.6 +31.5
21 14.06 штиль 0 16 км 8/0
[Ac trans Ci fib]
+21.2 +17.8 81 +25 +25 комфорт 1017.0 998.3
00 15.06 ЮЗ 1 9000 м дымка 6/0
[Ac trans Ci fib]
+18.7 +17.2 91 +21 +21 комфорт 1016.0 997.1
03 15.06 З 1 9000 м дымка 5/0
[Ac trans Ci fib]
+19.3 +17.6 90 +22 +23 комфорт 1016.0 997.2
06 15.06 СЗ 3 16 км 8/0
[Ac trans Ci]
+24.4 +18.6 70 +29 +29 душно 1015.0 996.5 +17.5
09 15.06 СЗ 6 20 км 4/4 600 м
[Cu med, cong]
+28.8 +13.4 39 +30 +35 жарко 1014.0 995.8
12 15.06 С 6 27 км 3/3 600 м
[Sc diur, vesp]
+29.7 +12.1 34 +31 +34 жарко 1013.0 994.8
15 15.06 С 7 25 км 3/3 600 м
[Sc diur, vesp]
+28.3 +13.8 41 +30 +31 жарко 1013.0 994.7
18 15.06 С 2 23 км 1/0
[Ci fib]
+24.5 +12.4 47 +26 +26 жарко 1014.0 995.5 +30.6
21 15.06 С 2 19 км ясно +18.3 +12.7 70 +19 +19 1014.0 995.1
00 16.06 С 2 15 км ясно +15.4 +12.7 84 +15 +15 1015.0 995.9
03 16.06 С 1 15 км 1/0
[Ci fib]
+14.5 +12.0 85 +15 +16 1014.0 994.8
06 16.06 СЗ 1 20 км 3/0
[Ci fib]
+21.6 +14.0 62 +24 +31 комфорт 1015.0 996.3 +13.9
09 16.06 СВ 5 20 км 8/0
[Ci fib]
+25.3 +9.9 38 +26 +26 жарко 1014.0 995.5
12 16.06 СВ 4 20 км 6/0
[Ci fib]
+27.2 +7.1 28 +27 +30 жарко 1014.0 995.6
15 16.06 СВ 3 20 км 8/0
[Cs]
+26.4 +8.4 32 +26 +26 жарко 1014.0 995.6
18 16.06 СВ 2 24 км 8/0
[Ac trans Cs]
+22.5 +11.5 50 +25 +25 комфорт 1014.0 995.4 +28.2
21 16.06 штиль 0 21 км 8/0
[Ac trans Ci fib]
+17.6 +12.3 71 +18 +18 1015.0 996.0
00 17.06 штиль 0 20 км 9/0
[Ac As]
+17.1 +12.2 73 +17 +17 1016.0 997.0
03 17.06 штиль 0 23 км 10/0
[Ac und]
+17.1 +12.2 73 +17 +17 1016.0 997.0
06 17.06 ЮВ 2 20 км 6/0
[Ac trans Ci fib]
+22.2 +14.3 61 +25 +29 комфорт 1016.0 997.3 +16.8
09 17.06 ЮЗ 2 20 км 5/5 600 м
[Cu hum]
+28.3 +14.1 42 +30 +37 жарко 1015.0 996.7
12 17.06 ЮЗ 2 27 км 9/9 600 м
[Sc]
+27.8 +13.7 42 +30 +30 жарко 1015.0 996.7
15 17.06 З 2 27 км 8/3 600 м
[Sc Ac trans]
+29.5 +15.2 42 +32 +32 душно 1013.0 994.8
18 17.06 Ю 2 23 км 3/3 600 м
[Sc Ac trans Ci fib]
+25.9 +15.9 54 +29 +29 душно 1013.0 994.6 +30.1
21 17.06 Ю 1 18 км 3/0
[Ac trans]
+22.6 +16.6 69 +27 +27 душно 1014.0 995.4
00 18.06 СЗ 2 18 км 1/0
[Ci fib]
+18.6 +15.8 84 +20 +20 1015.0 996.1
03 18.06 СЗ 2 22 км ясно +17.7 +16.0 90 +18 +19 1015.0 996.1
06 18.06 СЗ 3 28 км 1/1 600 м
[Cu hum]
+22.4 +16.4 69 +27 +34 душно 1015.0 996.4 +17.0
09 18.06 С 5 20 км 5/5 600 м
[Sc diur, vesp]
+25.9 +15.3 52 +29 +32 душно 1016.0 997.6
12 18.06 СЗ 4 25 км 8/5 600 м
[Sc Ac trans]
+25.9 +14.0 48 +28 +28 жарко 1015.0 996.6
15 18.06 СЗ 4 26 км 4/4 600 м
[Sc]
+27.3 +14.3 45 +30 +32 душно 1014.0 995.7
18 18.06 С 3 22 км 3/1 600 м
[Sc Ci fib]
+23.8 +15.0 58 +27 +27 жарко 1015.0 996.4 +28.5
21 18.06 С 2 19 км ясно +18.2 +14.5 79 +19 +19 1017.0 998.1
00 19.06 С 1 9000 м дымка 1/0
[Ac trans]
+15.4 +13.8 90 +16 +16 1017.0 997.9
03 19.06 С 2 21 км 1/0
[Ac trans]
+15.8 +13.6 87 +16 +17 1017.0 997.9
06 19.06 С 2 20 км 1/0
[Ci fib]
+23.9 +12.8 50 +26 +34 жарко 1017.0 998.4 +15.2
09 19.06 СВ 3 20 км 6/4 600 м
[Cu med, cong Ci fib]
+26.7 +11.6 39 +28 +33 жарко 1017.0 998.6
12 19.06 СВ 2 20 км 8/3 600 м
[Sc diur, vesp Cs]
+28.1 +11.0 34 +29 +37 жарко 1016.0 997.7
15 19.06 СВ 2 20 км 9/1 1000 м
[Sc diur, vesp Cs]
+28.8 +10.9 33 +29 +29 жарко 1015.0 996.7
18 19.06 СВ 1 24 км 1/0
[Ci fib]
+25.3 +10.7 40 +26 +26 жарко 1015.0 996.5 +30.5
21 19.06 СВ 1 21 км 1/0
[Ci fib]
+19.2 +11.2 60 +21 +21 комфорт 1016.0 997.1
00 20.06 СВ 1 18 км 3/3 600 м
[Sc]
+18.1 +10.9 63 +19 +19 1017.0 998.0
03 20.06 штиль 0 17 км 9/3 600 м
[Sc Cs]
+16.6 +11.3 71 +17 +17 1017.0 997.9
06 20.06 Ю 1 20 км 9/3 600 м
[Sc Cs]
+23.7 +15.7 61 +27 +27 жарко 1017.0 998.4 +16.3
09 20.06 В 1 20 км 9/4 600 м
[Cu med, cong Ci fib]
+29.0 +14.4 41 +31 +31 жарко 1016.0 997.7
12 20.06 ЮВ 2 20 км 9/3 600 м
[Cu med, cong Ci fib]
+30.6 +12.9 34 +32 +32 жарко 1015.0 996.8
15 20.06 ЮВ 3 26 км 6/3 600 м
[Sc diur, vesp Ci fib]
+30.4 +12.3 33 +31 +33 жарко 1014.0 995.8
18 20.06 ЮВ 1 24 км 4/0
[Ac trans Ci fib]
+25.7 +13.2 46 +28 +28 жарко 1014.0 995.6 +32.0

 

Местоположение метеостанции Семеновка (Черниговская область, Украина): широта 52.18 долгота 32.58 высота над уровнем моря 161 м.

В архиве по умолчанию представлена погода в Семеновке за последнюю неделю. Архивные данные за месяц целиком и за предыдущие месяцы, начиная с января 2011 года, Вы можете получить, выбрав интересующий диапазон дат из раскрывающегося списка и нажав кнопку "Ввод!".


*Определитесь, кто Вы:
робот инопланетянин человек

Внимание! Время в таблицах - всемирное. Для получения местного времени необходимо прибавить поправку, которая равна 2 ч.

Смотрите также архив погоды в соседних городах и на ближайших метеорологических станциях:

Погода в Щорсе (Черниговская область, Украина) (59 км)
Погода в Унече (Брянская область, Россия) (73 км)
Погода в Покошичах (Черниговская область, Украина) (85 км)
Погода в Трубчевске (Брянская область, Россия) (92 км)
Погода в Дружбе (Сумская область, Украина) (95 км)
Погода в Глухове (Сумская область, Украина) (107 км)
Погода в Гомеле (Гомельская область, Беларусь) (113 км)
Погода в Конотопе (Сумская область, Украина) (114 км)
Погода в Красной Горе (Брянская область, Россия) (115 км)
Погода в Чернигове (Черниговская область, Украина) (121 км)

Пояснения к столбцам:

Ветер - указаны скорость ветра в м/с - средняя за 10 мин, порывы в срок и между сроками (в фигурных скобках) и направление, откуда дует ветер: С - северный, СВ - северо-восточный, В - восточный, ЮВ - юго-восточный, Ю - южный, ЮЗ - юго-западный, З - западный, СЗ - северо-западный.
Видимость - горизонтальная дальность видимости в метрах или километрах. При видимости от 1 до 10 км при отсутствии осадков обычно наблюдается дымка, при ухудшении видимости до 1 км и менее - туман. В сухую погоду видимость может ухудшаться дымом, пылью или мглою.
Явления - указаны атмосферные явления, наблюдавшиеся в срок или в последний час перед сроком; фигурными скобками обозначены явления, наблюдавшиеся между сроками (за 1-3 часа до срока); квадратными скобками обозначены град или гололедные отложения с указанием их диаметра в мм.
Облачность - указаны через наклонную черту общая и нижняя облачность в баллах и высота нижней границы облаков в метрах; квадратными скобками обозначены формы облаков: Ci - перистые, Cs - перисто-слоистые, Cc - перисто-кучевые, Ac - высококучевые, As - высокослоистые, Sc - слоисто-кучевые, Ns - слоисто-дождевые, Cu - кучевые, Cb - кучево-дождевые. Подробнее классификацию облаков см. в Атласе облаков (PDF).
T - Температура воздуха - температура, измеренная на высоте 2 м над землей.
Td - Температура точки росы - температура, при понижении до которой содержащийся в воздухе водяной пар достигнет насыщения.
f - Относительная влажность воздуха - влажноcть воздуха, измеренная на высоте 2 м над землей.
Te - Эффективная температура - температура, которую ощущает одетый по сезону человек в тени. Характеристика душности погоды. При расчете учитывается влияние влажности воздуха и скорости ветра на теплоощущения человека.
Tes - Эффективная температура на солнце - температура, которую ощущает человек, с поправкой на солнечный нагрев. Характеристика знойности погоды. Зависит от высоты солнца над горизонтом, облачности и скорости ветра. Ночью, в пасмурную погоду, а также при ветре 12 м/с и более поправка равна нулю.
P - Атмосферное давление - приведенное к уровню моря атмосферное давление.
Po - Атмосферное давление - измеренное на уровне метеостанции атмосферное давление.
Tmin - Минимальная температура - минимум температуры воздуха на высоте 2 м над землей.
Tmax - Максимальная температура - максимум температуры воздуха на высоте 2 м над землей.
R - Количество осадков - Количество выпавших осадков за период времени, мм. При наведении курсора мыши на число - период времени, за который выпало указанное количество осадков.
R24 - Количество осадков - Количество выпавших осадков за 24 часа, мм.
S - Снежный покров - Высота снежного покрова, см. При наведении курсора мыши на число - состояние снежного покрова и степень покрытия местности в баллах.